Stations météo

réclame
Mon MeteoGroup
Gibraltar, Grande-Bretagne (8495): Température de l'air & dewpoint: 12.01.2020 14:00:00 - 18.01.2020 14:00:00 (CET)Gibraltar, Grande-Bretagne (8495): Vitesse du vent: 12.01.2020 14:00:00 - 18.01.2020 14:00:00 (CET)Gibraltar, Grande-Bretagne (8495): Direction du vent: 12.01.2020 14:00:00 - 18.01.2020 14:00:00 (CET)Gibraltar, Grande-Bretagne (8495): reduced air pressure: 12.01.2020 14:00:00 - 18.01.2020 14:00:00 (CET)Gibraltar, Grande-Bretagne (8495): visibility: 12.01.2020 14:00:00 - 18.01.2020 14:00:00 (CET)Gibraltar, Grande-Bretagne (8495): Ensoleillement: 12.01.2020 14:00:00 - 18.01.2020 14:00:00 (CET)
Date & Time tt [°C] td [°C] ff [km/h] ff [knt] dd ppp [hPa] vv [km] sd [min]
18.01.2020 14:00:00 16,6 12,6 15 8 SSW 1030,7 14 18
18.01.2020 13:00:00 16,4 12,6 4 2 WSW 1032,0 16 0
18.01.2020 12:00:00 14,9 11,7 5 3 W 1032,7 12 0
18.01.2020 11:00:00 14,6 11,1 9 5 WSW 1032,4 12 0
18.01.2020 10:00:00 13,2 8,1 8 4 W 1032,1 20 0
18.01.2020 09:00:00 12,1 10,1 9 5 W 1031,7 19 0
18.01.2020 08:00:00 12,2 10,1 5 3 W 1031,0 20 0
18.01.2020 07:00:00 12,1 10,6 9 5 W 1030,7 15 0
18.01.2020 06:00:00 12,2 10,8 8 4 WSW 1030,8 15 0
18.01.2020 05:00:00 12,2 10,9 11 6 W 1030,7 12 0
18.01.2020 04:00:00 13,3 11,7 9 5 WSW 1030,9 12 0
18.01.2020 03:00:00 13,1 11,5 15 8 SW 1031,3 10 0
18.01.2020 02:00:00 12,9 11,7 15 8 SW 1031,6 9 0
18.01.2020 01:00:00 13,7 12,2 13 7 WSW 1032,1 9 -
18.01.2020 00:00:00 14,3 12,3 13 7 WSW 1032,1 12 0
17.01.2020 23:00:00 14,8 12,4 16 9 WSW 1032,4 12 0
17.01.2020 22:00:00 15,0 12,3 15 8 WSW 1032,3 12 0
17.01.2020 21:00:00 15,4 12,3 15 8 WSW 1032,0 14 0
17.01.2020 20:00:00 15,7 12,8 11 6 W 1031,9 30 0
17.01.2020 19:00:00 16,4 13,0 15 8 W 1031,1 30 0
17.01.2020 18:00:00 17,1 13,0 18 10 W 1030,9 30 0
17.01.2020 17:00:00 17,9 12,5 13 7 WSW 1030,6 25 0
17.01.2020 16:00:00 18,9 11,8 11 6 SSW 1030,7 25 42
17.01.2020 15:00:00 19,0 11,2 11 6 SSW 1031,1 25 60
17.01.2020 14:00:00 18,5 9,6 18 10 SSW 1031,7 17 60
17.01.2020 13:00:00 17,7 10,0 11 6 WSW 1032,7 20 60
17.01.2020 12:00:00 16,0 9,2 8 4 W 1033,6 20 30
17.01.2020 11:00:00 14,9 8,0 4 2 W 1033,5 17 0
17.01.2020 10:00:00 12,1 8,6 4 2 W 1032,8 15 48
17.01.2020 09:00:00 10,9 8,1 11 6 W 1032,4 20 0
17.01.2020 08:00:00 11,1 7,6 8 4 WSW 1031,7 20 0
17.01.2020 07:00:00 11,3 8,4 8 4 W 1031,1 20 0
17.01.2020 06:00:00 10,4 7,3 11 6 W 1030,9 20 0
17.01.2020 05:00:00 10,8 8,7 11 6 WSW 1030,5 17 0
17.01.2020 04:00:00 10,9 8,8 9 5 W 1031,2 17 0
17.01.2020 03:00:00 11,1 8,8 11 6 WSW 1030,8 17 0
17.01.2020 02:00:00 11,5 9,3 9 5 WSW 1030,9 14 0
17.01.2020 01:00:00 11,6 9,9 9 5 W 1031,3 12 -
17.01.2020 00:00:00 11,9 10,3 11 6 WSW 1030,8 10 0
16.01.2020 23:00:00 12,4 11,0 9 5 WSW 1030,6 8 0
16.01.2020 22:00:00 13,2 11,9 5 3 WSW 1030,3 15 0
16.01.2020 21:00:00 13,4 11,1 4 2 W 1029,9 20 0
16.01.2020 20:00:00 13,6 10,7 0 0 N 1029,4 25 0
16.01.2020 19:00:00 14,6 11,5 4 2 SSE 1028,9 25 18
16.01.2020 18:00:00 15,4 11,8 9 5 ESE 1028,5 20 60
16.01.2020 17:00:00 15,7 11,9 13 7 E 1028,2 30 60
16.01.2020 16:00:00 15,7 11,7 11 6 E 1028,2 30 60
16.01.2020 15:00:00 15,8 11,6 11 6 E 1028,4 30 60
16.01.2020 14:00:00 16,0 11,6 9 5 E 1028,9 25 60
16.01.2020 13:00:00 15,4 11,4 13 7 ESE 1029,3 25 60
16.01.2020 12:00:00 15,1 11,3 8 4 ENE 1029,9 25 48
16.01.2020 11:00:00 13,4 9,8 2 1 NW 1029,6 30 24
16.01.2020 10:00:00 12,2 8,8 5 3 W 1029,1 35 54
16.01.2020 09:00:00 12,3 9,5 5 3 ENE 1028,4 40 0
16.01.2020 08:00:00 11,7 8,6 4 2 W 1028,4 20 0
16.01.2020 07:00:00 11,4 7,8 5 3 WSW 1027,8 20 0
16.01.2020 06:00:00 11,3 7,3 2 1 ENE 1027,6 22 0
16.01.2020 05:00:00 10,9 7,2 8 4 WSW 1028,0 20 0
16.01.2020 04:00:00 10,5 7,2 5 3 W 1028,3 19 0
16.01.2020 03:00:00 10,4 7,2 4 2 W 1028,1 21 0
16.01.2020 02:00:00 12,4 8,3 5 3 E 1028,1 17 0
16.01.2020 01:00:00 12,0 5,9 5 3 E 1028,3 21 -
16.01.2020 00:00:00 12,4 7,3 11 6 WSW 1028,2 17 0
15.01.2020 23:00:00 12,6 8,0 9 5 W 1028,1 15 0
15.01.2020 22:00:00 13,1 10,3 8 4 WSW 1028,1 12 0
15.01.2020 21:00:00 13,3 9,9 2 1 WNW 1028,2 13 0
15.01.2020 20:00:00 14,4 9,4 4 2 NE 1027,9 40 0
15.01.2020 19:00:00 15,3 9,5 2 1 SW 1027,4 40 6
15.01.2020 18:00:00 16,7 10,3 5 3 E 1027,0 40 54
15.01.2020 17:00:00 17,2 10,1 5 3 E 1026,7 40 60
15.01.2020 16:00:00 16,4 10,8 11 6 E 1026,5 40 60
15.01.2020 15:00:00 16,3 10,1 11 6 E 1026,4 40 60
15.01.2020 14:00:00 16,5 9,9 8 4 E 1026,9 50 60
15.01.2020 13:00:00 15,3 8,9 8 4 E 1027,5 50 60
15.01.2020 12:00:00 14,6 9,1 5 3 E 1028,0 50 60
15.01.2020 11:00:00 12,1 8,2 5 3 W 1027,4 50 60
15.01.2020 10:00:00 10,9 7,3 5 3 WSW 1026,8 50 42
15.01.2020 09:00:00 10,3 7,6 8 4 WSW 1026,4 50 0
15.01.2020 08:00:00 10,3 8,2 8 4 W 1025,6 20 0
15.01.2020 07:00:00 10,6 8,0 9 5 WSW 1025,0 20 0
15.01.2020 06:00:00 10,7 8,3 11 6 W 1024,6 20 0
15.01.2020 05:00:00 10,7 8,7 11 6 W 1024,7 20 0
15.01.2020 04:00:00 11,1 9,2 9 5 WSW 1024,9 16 0
15.01.2020 03:00:00 11,5 9,4 11 6 W 1025,0 14 0
15.01.2020 02:00:00 11,8 9,4 9 5 W 1025,0 14 0
15.01.2020 01:00:00 12,2 9,1 8 4 WSW 1025,4 18 -
15.01.2020 00:00:00 12,6 7,9 9 5 W 1025,4 22 0
14.01.2020 23:00:00 13,1 8,8 8 4 W 1025,2 22 0
14.01.2020 22:00:00 13,3 8,1 8 4 W 1024,8 22 0
14.01.2020 21:00:00 13,9 9,1 8 4 W 1024,9 20 0
14.01.2020 20:00:00 14,1 8,2 9 5 WNW 1024,7 22 0
14.01.2020 19:00:00 15,1 9,4 18 10 WNW 1024,2 19 6
14.01.2020 18:00:00 16,7 7,4 11 6 WSW 1023,9 40 42
14.01.2020 17:00:00 17,1 5,7 11 6 WSW 1023,5 40 60
14.01.2020 16:00:00 17,0 6,3 13 7 WSW 1023,3 40 60
14.01.2020 15:00:00 16,4 7,4 22 12 W 1023,6 40 60
14.01.2020 14:00:00 15,1 9,6 11 6 W 1024,4 40 42
14.01.2020 13:00:00 14,1 9,7 9 5 WSW 1025,4 40 18
14.01.2020 12:00:00 12,6 8,8 5 3 WSW 1025,9 40 12
14.01.2020 11:00:00 11,7 9,1 8 4 W 1025,6 40 6
14.01.2020 10:00:00 11,1 8,2 5 3 SW 1025,1 40 24
14.01.2020 09:00:00 9,9 8,5 9 5 W 1024,5 40 0
14.01.2020 08:00:00 10,1 8,4 8 4 W 1024,3 50 0
14.01.2020 07:00:00 10,1 8,3 8 4 W 1023,9 50 0
14.01.2020 06:00:00 10,2 8,6 9 5 W 1023,6 18 0
14.01.2020 05:00:00 10,2 8,5 9 5 W 1023,7 19 0
14.01.2020 04:00:00 9,9 8,7 11 6 WSW 1024,0 17 0
14.01.2020 03:00:00 10,1 8,8 8 4 WSW 1024,3 14 0
14.01.2020 02:00:00 10,6 9,0 13 7 W 1024,7 17 0
14.01.2020 01:00:00 10,9 9,0 9 5 WSW 1025,1 17 -
14.01.2020 00:00:00 11,2 9,1 9 5 WSW 1025,3 18 0
13.01.2020 23:00:00 11,9 9,8 8 4 WSW 1025,4 18 0
13.01.2020 22:00:00 12,0 10,0 4 2 WSW 1025,5 16 0
13.01.2020 21:00:00 12,5 9,3 0 0 N 1025,9 22 0
13.01.2020 20:00:00 13,8 9,8 9 5 SE 1026,0 23 0
13.01.2020 19:00:00 14,1 9,6 13 7 ESE 1026,0 24 0
13.01.2020 18:00:00 14,4 9,3 13 7 ESE 1025,6 40 60
13.01.2020 17:00:00 15,0 9,3 11 6 ESE 1025,8 40 60
13.01.2020 16:00:00 15,1 9,4 11 6 E 1026,1 40 60
13.01.2020 15:00:00 14,9 9,3 13 7 E 1026,2 40 54
13.01.2020 14:00:00 14,6 9,9 11 6 ENE 1027,1 40 6
13.01.2020 13:00:00 14,4 9,9 13 7 NE 1028,2 40 0
13.01.2020 12:00:00 14,3 10,0 18 10 ENE 1028,4 40 12
13.01.2020 11:00:00 13,6 9,8 15 8 NE 1028,5 40 36
13.01.2020 10:00:00 14,5 9,2 18 10 E 1027,9 40 54
13.01.2020 09:00:00 11,8 9,0 9 5 NNE 1027,7 40 0
13.01.2020 08:00:00 12,4 9,7 9 5 NNE 1027,7 50 0
13.01.2020 07:00:00 12,0 9,3 11 6 NNE 1027,5 30 0
13.01.2020 06:00:00 14,0 9,7 24 13 E 1027,5 21 0
13.01.2020 05:00:00 13,9 10,2 26 14 E 1027,9 21 0
13.01.2020 04:00:00 12,9 10,7 15 8 ENE 1028,2 19 0
13.01.2020 03:00:00 12,3 10,5 15 8 NE 1028,4 16 0
13.01.2020 02:00:00 11,9 9,9 5 3 NNE 1028,8 15 0
13.01.2020 01:00:00 11,9 9,8 11 6 NNE 1029,4 14 -
13.01.2020 00:00:00 12,4 10,1 15 8 NNE 1029,8 13 0
12.01.2020 23:00:00 14,3 9,7 16 9 E 1029,5 21 0
12.01.2020 22:00:00 14,3 9,8 18 10 E 1029,5 20 0
12.01.2020 21:00:00 14,5 9,4 15 8 E 1029,4 21 0
12.01.2020 20:00:00 14,2 9,4 9 5 ESE 1029,4 25 0
12.01.2020 19:00:00 14,6 10,0 11 6 ESE 1028,9 30 18
12.01.2020 18:00:00 14,8 10,6 13 7 ESE 1028,7 40 60
12.01.2020 17:00:00 15,4 10,2 11 6 ESE 1028,8 40 60
12.01.2020 16:00:00 15,1 9,9 15 8 E 1028,9 40 60
12.01.2020 15:00:00 15,3 10,1 13 7 E 1029,1 40 60
12.01.2020 14:00:00 14,9 9,3 11 6 E 1030,0 30 24

tt = Température de l'air
td = dewpoint
ff = Vitesse du vent
dd = Direction du vent
ppp = reduced air pressure
vv = visibility
sd = Ensoleillement

stations d'obs. à proximité